Погода в Воскресенском Новом

Россия / Ивановская область     57°04′11″N   42°30′10″E
темп.,
°C
ветер,
м/с
пор.,
м/с
влажн.,
%
обл.,
%
осадки,
мм/ч
давл.,
гПа
погр.,
м
27 сентября, пн
пн2700:00+8с3893100 0.0 1013298
03:00+8с4995100 0.1 1015480
06:00+8с41096100 0.1 1016661
09:00+9ссв51093100 0.4 1017709
12:00+8ссв51092100 0.2 1019857
15:00+9ссв51090100 0.3 1020864
18:00+7св5992100 0.7 10221140
21:00+5всв51085100 1.1 1025915
28 сентября, вт
вт2800:00+5всв5987100 0.1 1026844
03:00+5св498770 0.1 1028658
06:00+3всв49935 0.0 1030348
09:00+5всв47755 0.0 1031561
12:00+8св455693 0.0 1032913
15:00+9св455050 0.0 10321080
18:00+5с22687 0.0 103334
21:00+3ссв22753 0.0 103429
29 сентября, ср
ср2900:00+3ссв22790 0.0 103423
03:00+2с22826 0.0 103428
06:00+1с238955 0.0 103556
09:00+6ссв24716 0.0 1035312
12:00+10ссв23555 0.0 1035902
15:00+11ссв235551 0.0 10341132
18:00+9ссв2268100 0.0 103439
21:00+9с1269100 0.0 103422
30 сентября, чт
чт3000:00+8зсз1170100 0.0 103410
03:00+8сз2375100 0.0 103466
06:00+5сз229029 0.0 103524
09:00+8зсз1380100 0.0 1035128
12:00+12з226445 0.0 1034764
15:00+13зсз236231 0.0 1034955
18:00+9з22836 0.0 103339
21:00+8сз229228 0.0 103326
1 октября, пт
пт100:00+8зсз239341 0.0 103454
03:00+7сз249418 0.0 103464
06:00+7сз269646 0.0 1034124
09:00+11ссз358270 0.0 1034303
12:00+13сз357085 0.0 1034681
15:00+13зсз357198 0.0 1033604
18:00+11зсз258073 0.0 1033142
21:00+8зсз23906 0.0 103449